HST 1 20580U 90037B 26150.53921556 .00006911 00000+0 21966-3 0 9997 2 20580 28.4720 201.1735 0001465 321.2424 38.8067 15.30552064785860 POLAR 1 23802U 96013A 26150.32172904 .00000079 00000+0 00000+0 0 9990 2 23802 79.8355 227.2619 6452546 209.6954 88.7296 1.29846071144625 SWAS 1 25560U 98071A 26150.58851388 .00005494 00000+0 34829-3 0 9993 2 25560 69.8968 272.8982 0008494 276.8807 83.1390 15.09483164494616 CXO 1 25867U 99040B 26153.50844987 .00000595 00000+0 00000+0 0 9999 2 25867 55.9180 117.0902 7859055 310.3424 0.0689 0.37796441 17264 XMM-NEWTON 1 25989U 99066A 26151.39518084 .00000020 00000+0 00000+0 0 9996 2 25989 64.5741 283.1994 4678439 65.1913 0.1385 0.50128323 22920 TERRA 1 25994U 99068A 26150.64017015 .00000507 00000+0 11222-3 0 9991 2 25994 97.9466 200.8811 0000870 302.8039 209.0443 14.61087449407043 CLUSTER II-FM7 (SAMBA) 1 26410U 00041A 26152.52173266 .00007684 00000+0 00000+0 0 9999 2 26410 149.8860 47.8948 9033309 264.9086 0.0606 0.44869700 20230 CLUSTER II-FM8 (TANGO) 1 26464U 00045B 26148.17842811 .00003832 00000+0 00000+0 0 9998 2 26464 150.1227 48.2697 9032338 265.0681 3.6347 0.44417493 20229 ODIN 1 26702U 01007A 26150.53587627 .00161949 00000+0 13214-2 0 9994 2 26702 97.3881 190.4166 0005402 165.5322 194.6096 15.70091335386621 TIMED 1 26998U 01055B 26150.47884110 .00001675 00000+0 15572-3 0 9993 2 26998 74.0680 270.6721 0000127 63.8503 296.2695 14.95245100328172 CORIOLIS 1 27640U 03001A 26150.51042915 .00000130 00000+0 81713-4 0 9991 2 27640 98.7126 157.6651 0012805 263.4002 96.5717 14.19939657211719 SORCE 1 27651U 03004A 26150.60569635 .00003984 00000+0 29599-3 0 9992 2 27651 39.9926 1.9789 0018790 284.9229 74.9484 15.03606384269252 MOST 1 27843U 03031D 26150.47128905 .00000099 00000+0 65377-4 0 9990 2 27843 98.7044 158.4444 0008899 308.0314 52.0059 14.21318479188199 SCISAT 1 1 27858U 03036A 26150.60029462 .00000695 00000+0 93443-4 0 9991 2 27858 73.9296 206.2849 0008714 274.2134 85.8047 14.81427701228843 SWIFT 1 28485U 04047A 26150.62217684 .00057299 00000+0 51384-3 0 9997 2 28485 20.5549 320.2154 0003315 59.3474 300.7298 15.66504711184104 HINODE (SOLAR-B) 1 29479U 06041A 26150.47095347 .00000998 00000+0 17989-3 0 9997 2 29479 98.0550 166.8847 0017077 349.3212 10.7628 14.68594427 52276 SHIJIAN-6 02A (SJ-6 02A) 1 29505U 06046A 26150.60993030 .00009358 00000+0 48064-3 0 9990 2 29505 97.6366 191.5467 0003093 168.4484 191.6820 15.16715061 69604 SHIJIAN-6 02B (SJ-6 02B) 1 29506U 06046B 26150.61793683 .00002158 00000+0 17203-3 0 9996 2 29506 97.7161 179.7847 0013698 113.0907 247.1763 15.01325840 68100 FGRST (GLAST) 1 33053U 08029A 26150.81088882 .00004438 00000+0 16514-3 0 9998 2 33053 25.5838 325.1258 0008630 119.3326 240.8075 15.23842108993185 SDO 1 36395U 10005A 26150.33723204 -.00000079 00000+0 00000+0 0 9995 2 36395 34.6162 86.6116 0001386 39.8450 140.8638 1.00271689 59889 CRYOSAT 2 1 36508U 10013A 26150.85145816 .00000201 00000+0 49170-4 0 9996 2 36508 92.0340 273.0895 0002340 85.1574 274.9900 14.51903693855566 X-SAT 1 37389U 11015C 26150.88477780 .00000074 00000+0 49111-4 0 9991 2 37389 98.3496 128.7332 0014939 37.7410 322.4815 14.25200400785211 GCOM-W1 (SHIZUKU) 1 38337U 12025A 26150.86673719 .00000606 00000+0 14451-3 0 9994 2 38337 98.2019 91.6855 0001838 88.3204 339.5770 14.57106262746515 NUSTAR 1 38358U 12031A 26150.91668980 .00005917 00000+0 31358-3 0 9999 2 38358 6.0246 163.6772 0008615 219.4717 129.7807 15.08621670 1304 NEOSSAT 1 39089U 13009D 26150.50910964 .00000194 00000+0 81750-4 0 9998 2 39089 98.4173 330.9627 0009972 302.8668 57.1557 14.35819744694200 BRITE-AUSTRIA 1 39091U 13009F 26150.44687143 .00000232 00000+0 93631-4 0 9998 2 39091 98.3990 330.3225 0009059 296.3757 63.6499 14.36534373694502 IRIS 1 39197U 13033A 26150.52133801 .00001384 00000+0 16451-3 0 9991 2 39197 97.9338 349.8535 0024952 20.0729 340.1462 14.85845134697756 HISAKI (SPRINT-A) 1 39253U 13049A 26150.82100252 .00000142 00000+0 10096-3 0 9998 2 39253 29.7216 308.3018 0136880 236.1486 122.5992 13.55542481629061 CASSIOPE 1 39265U 13055A 26150.83324310 .00043154 -52997-6 48182-3 0 9999 2 39265 80.9148 87.7670 0298186 120.5905 242.5106 15.23654251665021 STSAT-3 1 39422U 13066G 26150.86637297 .00005886 00000+0 44562-3 0 9998 2 39422 97.6185 121.0365 0010522 92.6752 267.5678 15.02634578681600 SWARM B 1 39451U 13067A 26150.78446951 .00003997 00000+0 14326-3 0 9993 2 39451 87.7437 347.6053 0003358 96.3709 263.7923 15.28435362680589 SWARM A 1 39452U 13067B 26150.79668551 .00013108 00000+0 22861-3 0 9995 2 39452 87.3341 62.6990 0003097 88.6558 271.5057 15.50569712703550 SWARM C 1 39453U 13067C 26150.79658510 .00013261 00000+0 23127-3 0 9996 2 39453 87.3341 61.2803 0003060 88.1873 271.9738 15.50571994703515 BRITE-CA1 (TORONTO) 1 40020U 14033L 26150.77980360 .00000878 00000+0 13961-3 0 9996 2 40020 97.9716 280.0310 0077945 333.5581 26.1658 14.72650458639650 OCO 2 1 40059U 14035A 26150.85066397 .00000523 00000+0 12617-3 0 9998 2 40059 98.2014 92.4086 0001453 87.9487 272.1878 14.57094979633528 BRITE-PL2 (HEWELIUSZ) 1 40119U 14049B 26150.83213985 .00002461 00000+0 23294-3 0 9991 2 40119 97.9079 262.7010 0014454 162.6218 197.5499 14.94519701638855 MMS 1 1 40482U 15011A 26150.91668980 -.00000369 00000+0 00000+0 0 9994 2 40482 71.9379 349.0343 8332278 167.0051 336.7679 0.28499011 1393 MMS 2 1 40483U 15011B 26150.91668980 -.00000368 00000+0 00000+0 0 9994 2 40483 71.9377 349.0363 8332782 167.0094 336.7495 0.28506566 1391 MMS 3 1 40484U 15011C 26150.91668980 -.00000368 00000+0 00000+0 0 9995 2 40484 71.9406 349.0409 8331984 167.0038 336.7470 0.28506406 1393 MMS 4 1 40485U 15011D 26150.91668980 -.00000368 00000+0 00000+0 0 9996 2 40485 71.9374 349.0367 8331842 167.0130 336.7414 0.28498942 1390 ASTROSAT 1 40930U 15052A 26150.80203060 .00001932 00000+0 15345-3 0 9997 2 40930 5.9974 280.5032 0007640 149.7307 210.3262 14.82473844577246 DAMPE 1 41173U 15078A 26150.84561169 .00001599 00000+0 56331-4 0 9996 2 41173 97.4555 156.2276 0013239 131.5808 228.6570 15.30736053581890 PISAT 1 41784U 16059B 26150.57000728 .00001143 00000+0 20222-3 0 9997 2 41784 97.8177 151.7805 0027481 261.4523 98.3568 14.68949116517154 HXMT (HUIYAN) 1 42758U 17034A 26150.83375079 .00007331 00000+0 35786-3 0 9992 2 42758 43.0151 279.6601 0030727 32.8128 327.4621 15.18318368495025 FLYING LAPTOP 1 42831U 17042G 26150.85383523 .00004966 00000+0 39186-3 0 9997 2 42831 97.4611 307.0633 0018632 179.0667 181.0596 15.01021096483859 ZHANGHENG 1-01 (CSES-1) 1 43194U 18015C 26150.83331894 .00008390 00000+0 38483-3 0 9997 2 43194 97.6851 316.1511 0017628 331.1019 28.9238 15.20566847462007 SALSAT 1 46495U 20068K 26150.54880527 .00010252 00000+0 36063-3 0 9997 2 46495 97.8845 152.5438 0009937 15.6059 344.5484 15.29513109312669 IXPE 1 49954U 21121A 26150.83335647 .00018755 00000+0 10599-2 0 9992 2 49954 0.2294 88.3996 0006863 176.7605 209.9468 15.10075905 5824 SMILE 1 69123U 26109A 26144.65318427 -.00001976 00000+0 -42379-3 0 9994 2 69123 70.0007 229.2745 0009123 259.5159 100.4951 14.57062785 802